West Columbia, WV

4:44 PM EDT on September 30, 2016 (GMT -0400)
Point Pleasant

Weather History for K3I2 - October, 2012

Change the Weather History Date:

Sunday, October 28, 2012

  Actual Average (KHTS) Record (KHTS)
Temperature  
Mean Temperature 44 °F 53 °F  
Max Temperature 48 °F 64 °F 85 °F (1919)
Min Temperature 39 °F 42 °F 26 °F (1976)
Degree Days  
Heating Degree Days 22 12  
Month to date heating degree days 242  
Since 1 July heating degree days 300  
Cooling Degree Days 0 0  
Month to date cooling degree days 16  
Year to date cooling degree days 1127  
Moisture  
Dew Point 41 °F    
Average Humidity 91    
Maximum Humidity 100    
Minimum Humidity 82    
Precipitation  
Precipitation 0.00 in 0.10 in 1.78 in (1984)
Month to date precipitation 2.51  
Year to date precipitation 35.54  
Snow  
Snow 0.00 in - - ()
Month to date snowfall  
Since 1 September snowfall  
Snow Depth -    
Sea Level Pressure  
Sea Level Pressure 29.96 in    
Wind  
Wind Speed 2 mph (North)    
Max Wind Speed 8 mph    
Max Gust Speed -    
Visibility 5 miles    
Events Rain    
T = Trace of Precipitation, MM = Missing Value Source: NWS Daily Summary

Daily Weather History Graph

Daily Weather History Graph

Search for Another Location

Airport or City:

Trip Planner

Search our weather history database for the weather conditions in past years. The results will help you decide how hot, cold, wet, or windy it might be!

Date:

Astronomy

Oct. 28, 2012 Rise Set
Actual Time 7:51 AM EDT 6:31 PM EDT
Civil Twilight 7:24 AM EDT 6:59 PM EDT
Nautical Twilight 6:53 AM EDT 7:30 PM EDT
Astronomical Twilight 6:22 AM EDT 8:01 PM EDT
Moon 5:48 PM EDT (10/28) 6:43 AM EDT (10/28)
Length of Visible Light 11h 35m
Length of Day
10h 40m
Waxing Gibbous, 99% of the Moon is Illuminated
Oct 28
Waxing Gibbous
Oct 29
Full
Nov 6
Last Quarter
Nov 13
New
Nov 20
First Quarter

Hourly Weather History & Observations

Time (EDT) Temp. Windchill Dew Point Humidity Pressure Visibility Wind Dir Wind Speed Gust Speed Precip Events Conditions
12:35 AM 46.4 °F - 42.8 °F 87% 30.03 in 10.0 mi Calm Calm - N/A   Overcast
12:55 AM 48.2 °F - 42.8 °F 82% 30.03 in 10.0 mi Calm Calm - N/A   Overcast
1:15 AM 48.2 °F - 42.8 °F 82% 30.03 in 10.0 mi North 3.5 mph - N/A   Overcast
2:15 AM 46.4 °F 45.2 °F 42.8 °F 87% 30.02 in 7.0 mi NNE 3.5 mph - N/A Rain Light Rain
2:35 AM 46.4 °F 45.2 °F 42.8 °F 87% 30.01 in 7.0 mi NNE 3.5 mph - N/A Rain Light Rain
2:55 AM 46.4 °F - 42.8 °F 87% 30.01 in 7.0 mi Calm Calm - N/A Rain Light Rain
3:15 AM 46.4 °F - 44.6 °F 93% 30.01 in 5.0 mi Calm Calm - N/A Rain Rain
3:35 AM 46.4 °F - 44.6 °F 93% 29.99 in 5.0 mi Calm Calm - N/A Rain Light Rain
3:55 AM 46.4 °F - 44.6 °F 93% 29.99 in 10.0 mi Calm Calm - N/A Rain Light Rain
4:15 AM 46.4 °F 45.2 °F 44.6 °F 93% 29.98 in 7.0 mi NNE 3.5 mph - N/A   Overcast
4:35 AM 44.6 °F - 44.6 °F 100% 29.98 in 4.0 mi Calm Calm - N/A Rain Light Rain
4:55 AM 44.6 °F - 44.6 °F 100% 29.98 in 5.0 mi Calm Calm - N/A   Overcast
5:15 AM 44.6 °F - 44.6 °F 100% 29.98 in 5.0 mi Calm Calm - N/A Rain Light Rain
5:35 AM 44.6 °F 43.1 °F 42.8 °F 93% 29.98 in 5.0 mi NNE 3.5 mph - N/A Rain Light Rain
5:55 AM 44.6 °F 43.1 °F 42.8 °F 93% 29.98 in 4.0 mi North 3.5 mph - N/A Rain Rain
6:15 AM 44.6 °F - 42.8 °F 93% 29.98 in 5.0 mi Calm Calm - N/A Rain Light Rain
6:35 AM 44.6 °F 43.1 °F 42.8 °F 93% 29.98 in 4.0 mi NNE 3.5 mph - N/A Rain Rain
6:55 AM 44.6 °F 43.1 °F 42.8 °F 93% 29.97 in 3.0 mi NNE 3.5 mph - N/A Rain Rain
7:15 AM 44.6 °F - 42.8 °F 93% 29.97 in 3.0 mi Calm Calm - N/A Rain Light Rain
7:35 AM 44.6 °F - 42.8 °F 93% 29.97 in 3.0 mi Calm Calm - N/A Rain Heavy Rain
7:55 AM 44.6 °F - 42.8 °F 93% 29.98 in 2.0 mi Calm Calm - N/A   Overcast
8:15 AM 44.6 °F 42.2 °F 42.8 °F 93% 29.98 in 4.0 mi North 4.6 mph - N/A Rain Rain
8:35 AM 44.6 °F 43.1 °F 42.8 °F 93% 29.98 in 4.0 mi North 3.5 mph - N/A Rain Light Rain
8:55 AM 44.6 °F 42.2 °F 42.8 °F 93% 29.99 in 4.0 mi NNE 4.6 mph - N/A Rain Light Rain
9:15 AM 44.6 °F - 42.8 °F 93% 29.99 in 5.0 mi Calm Calm - N/A Rain Light Rain
9:35 AM 44.6 °F 42.2 °F 42.8 °F 93% 29.99 in 4.0 mi North 4.6 mph - N/A Rain Light Rain
9:55 AM 44.6 °F - 42.8 °F 93% 29.98 in 5.0 mi Calm Calm - N/A Rain Light Rain
10:35 AM 44.6 °F - 42.8 °F 93% 29.98 in 4.0 mi Calm Calm - N/A   Light Drizzle
10:55 AM 44.6 °F - 42.8 °F 93% 29.97 in 5.0 mi Calm Calm - N/A Rain Light Rain
11:15 AM 44.6 °F - 42.8 °F 93% 29.97 in 3.0 mi Calm Calm - N/A Rain Light Rain
11:35 AM 44.6 °F 42.2 °F 42.8 °F 93% 29.97 in 3.0 mi NNW 4.6 mph - N/A Rain Light Rain
11:55 AM 44.6 °F 43.1 °F 42.8 °F 93% 29.97 in 3.0 mi NNW 3.5 mph - N/A Rain Rain
12:15 PM 44.6 °F 42.2 °F 42.8 °F 93% 29.96 in 5.0 mi North 4.6 mph - N/A Rain Light Rain
12:35 PM 44.6 °F 41.4 °F 42.8 °F 93% 29.96 in 2.5 mi North 5.8 mph - N/A Rain Light Rain
12:55 PM 44.6 °F 41.4 °F 41.0 °F 87% 29.95 in 4.0 mi NNW 5.8 mph - N/A Rain Light Rain
1:15 PM 44.6 °F - 41.0 °F 87% 29.94 in 4.0 mi Calm Calm - N/A Rain Light Rain
1:35 PM 44.6 °F 43.1 °F 41.0 °F 87% 29.93 in 3.0 mi NNE 3.5 mph - N/A Rain Light Rain
1:55 PM 44.6 °F 42.2 °F 41.0 °F 87% 29.92 in 3.0 mi North 4.6 mph - N/A Rain Light Rain
2:15 PM 44.6 °F 42.2 °F 42.8 °F 93% 29.92 in 4.0 mi North 4.6 mph - N/A Rain Light Rain
2:35 PM 44.6 °F 43.1 °F 42.8 °F 93% 29.91 in 3.0 mi North 3.5 mph - N/A Rain Rain
3:15 PM 44.6 °F 42.2 °F 41.0 °F 87% 29.91 in 5.0 mi North 4.6 mph - N/A Rain Light Rain
3:35 PM 42.8 °F - 41.0 °F 93% 29.91 in 3.0 mi Calm Calm - N/A Rain Rain
3:55 PM 42.8 °F 41.1 °F 41.0 °F 93% 29.91 in 3.0 mi NNE 3.5 mph - N/A Rain Light Rain
4:15 PM 42.8 °F 39.3 °F 41.0 °F 93% 29.91 in 2.5 mi NNW 5.8 mph - N/A Rain Heavy Rain
4:35 PM 42.8 °F 40.1 °F 41.0 °F 93% 29.92 in 3.0 mi NNW 4.6 mph - N/A Rain Rain
4:55 PM 42.8 °F - 41.0 °F 93% 29.92 in 4.0 mi Calm Calm - N/A Rain Rain
5:15 PM 42.8 °F - 41.0 °F 93% 29.93 in 4.0 mi Calm Calm - N/A Rain Rain
5:35 PM 42.8 °F 38.6 °F 41.0 °F 93% 29.93 in 5.0 mi NW 6.9 mph - N/A Rain Rain
5:55 PM 42.8 °F 39.3 °F 41.0 °F 93% 29.94 in 4.0 mi North 5.8 mph - N/A Rain Rain
6:15 PM 42.8 °F 38.6 °F 39.2 °F 87% 29.94 in 4.0 mi North 6.9 mph - N/A Rain Light Rain
6:35 PM 41.0 °F 38.0 °F 39.2 °F 93% 29.95 in 5.0 mi North 4.6 mph - N/A Rain Light Rain
6:55 PM 41.0 °F 37.1 °F 37.4 °F 87% 29.95 in 5.0 mi North 5.8 mph - N/A Rain Rain
7:15 PM 41.0 °F 37.1 °F 37.4 °F 87% 29.95 in 5.0 mi NNW 5.8 mph - N/A Rain Light Rain
7:35 PM 41.0 °F 36.4 °F 37.4 °F 87% 29.95 in 7.0 mi NNW 6.9 mph - N/A Rain Light Rain
7:55 PM 41.0 °F 37.1 °F 37.4 °F 87% 29.96 in 10.0 mi NNW 5.8 mph - N/A Rain Light Rain
8:15 PM 41.0 °F 38.0 °F 37.4 °F 87% 29.96 in 10.0 mi NNW 4.6 mph - N/A Rain Light Rain
8:35 PM 41.0 °F 39.0 °F 37.4 °F 87% 29.96 in 7.0 mi WNW 3.5 mph - N/A Rain Light Rain
8:55 PM 41.0 °F 35.8 °F 37.4 °F 87% 29.96 in 5.0 mi NW 8.1 mph - N/A Rain Light Rain
9:15 PM 41.0 °F 38.0 °F 37.4 °F 87% 29.96 in 5.0 mi NW 4.6 mph - N/A Rain Light Rain
9:55 PM 41.0 °F 38.0 °F 37.4 °F 87% 29.96 in 5.0 mi West 4.6 mph - N/A   Light Drizzle
10:15 PM 41.0 °F 39.0 °F 37.4 °F 87% 29.96 in 4.0 mi NW 3.5 mph - N/A Rain Light Rain
10:35 PM 41.0 °F 37.1 °F 37.4 °F 87% 29.95 in 5.0 mi NNW 5.8 mph - N/A Rain Light Rain
10:55 PM 41.0 °F 37.1 °F 37.4 °F 87% 29.95 in 5.0 mi North 5.8 mph - N/A Rain Rain
11:15 PM 39.2 °F 33.6 °F 35.6 °F 87% 29.95 in 7.0 mi NNW 8.1 mph - N/A Rain Light Rain
11:35 PM 39.2 °F 35.9 °F 35.6 °F 87% 29.94 in 7.0 mi NW 4.6 mph - N/A Rain Light Rain
11:55 PM 39.2 °F 34.2 °F 35.6 °F 87% 29.94 in 10.0 mi NW 6.9 mph - N/A Rain Light Rain